Вернуться в каталог

FENGYUN 1C DEB

АктивенPO
NORAD 33688·DEBRIS·🇨🇳 China

Запущен May 10, 1999 с Taiyuan Satellite Launch Center

Loading…

Ближайшие Пролёты (ближайшие 24 часа)

TLE

СвежийSource: Space-Track

Эпоха: Sep 12, 2026, 08:13 UTC

1 33688U 99025DFZ 26255.34293056  .00005837  00000-0  14844-2 0  9991
2 33688  99.3608  30.7914 0050030 173.8850 186.2963 14.50382556954427

Отслеживайте FENGYUN 1C DEB в реальном времени с AllMySat

Download on the App Store